Language: 


Des rapports , des résumés tant et plus, au choix de chacun....


Données statistiques de la station
Quotidien Rapport Novembre 29, 2017 Unités:  Métrique    Anglais   les deux
« Précédent Jour
Suivant Jour »
Quotidien Hebdomadaire Mensuel Annuel Actuel
  Haut: Bas: Moyen:
Température: 7.6 °C 0.9 °C 3.7 °C
Pt de rosée: 8.0 °C 1.0 °C 3.7 °C
Humidité: 98 % 93 % 98 %
Vitesse du vent: 21.6 km/h 0.0 km/h 5.1 km/h
Rafales: 24.8 km/h - -
Vent:- - West
Pression: 1008.0 hPa 1001.9 hPa -
Précipitation: 13.2 mm    
Historical Graphs
 
 
Données statistiques pour Novembre 29, 2017
Heure Température Point de rosée Pression Vent Vitesse du vent Refales Humidité Pluie (taux horaire)
00:03 0.9 °C 1.0 °C 1006.0 hPa West 5.0 km/h 9.0 km/h 98 % 0.0 mm
00:13 1.1 °C 1.0 °C 1005.0 hPa WSW 6.4 km/h 12.6 km/h 98 % 0.0 mm
00:18 1.3 °C 1.0 °C 1005.0 hPa West 9.0 km/h 14.0 km/h 98 % 0.0 mm
00:23 1.4 °C 1.0 °C 1005.0 hPa West 3.2 km/h 14.0 km/h 98 % 0.0 mm
00:28 1.5 °C 2.0 °C 1005.0 hPa NW 9.7 km/h 13.7 km/h 98 % 0.0 mm
00:33 1.6 °C 2.0 °C 1005.0 hPa West 7.9 km/h 13.7 km/h 98 % 0.0 mm
00:38 1.7 °C 2.0 °C 1005.0 hPa WSW 6.9 km/h 15.4 km/h 98 % 0.0 mm
00:43 1.8 °C 2.0 °C 1003.9 hPa West 12.6 km/h 15.4 km/h 98 % 0.0 mm
00:48 1.9 °C 2.0 °C 1003.9 hPa West 13.0 km/h 15.8 km/h 98 % 0.0 mm
00:53 1.9 °C 2.0 °C 1003.9 hPa West 16.6 km/h 16.6 km/h 98 % 0.0 mm
00:58 2.0 °C 2.0 °C 1005.0 hPa West 13.0 km/h 16.9 km/h 98 % 0.0 mm
01:08 2.1 °C 2.0 °C 1005.0 hPa West 12.2 km/h 16.6 km/h 98 % 0.0 mm
01:13 2.1 °C 2.0 °C 1005.0 hPa West 7.6 km/h 13.0 km/h 98 % 0.0 mm
01:18 2.1 °C 2.0 °C 1005.0 hPa West 10.5 km/h 13.0 km/h 98 % 0.0 mm
01:23 2.2 °C 2.0 °C 1005.0 hPa West 9.3 km/h 11.9 km/h 98 % 0.0 mm
01:33 2.3 °C 3.0 °C 1003.9 hPa West 5.5 km/h 10.5 km/h 98 % 0.3 mm
01:39 2.4 °C 3.0 °C 1003.9 hPa WSW 4.7 km/h 10.5 km/h 98 % 0.3 mm
01:44 2.4 °C 3.0 °C 1005.0 hPa WSW 1.8 km/h 9.3 km/h 98 % 0.3 mm
01:49 2.5 °C 3.0 °C 1005.0 hPa West 8.7 km/h 9.0 km/h 98 % 0.3 mm
01:54 2.5 °C 3.0 °C 1005.0 hPa WSW 10.5 km/h 10.5 km/h 98 % 0.3 mm
01:59 2.6 °C 3.0 °C 1005.0 hPa West 11.9 km/h 11.9 km/h 98 % 0.3 mm
02:09 2.7 °C 3.0 °C 1005.0 hPa West 4.0 km/h 13.7 km/h 98 % 0.5 mm
02:14 2.7 °C 3.0 °C 1003.9 hPa West 6.4 km/h 13.0 km/h 98 % 0.8 mm
02:19 2.7 °C 3.0 °C 1003.9 hPa West 1.8 km/h 9.7 km/h 98 % 1.3 mm
02:24 2.7 °C 3.0 °C 1003.9 hPa WSW 3.5 km/h 9.7 km/h 98 % 1.3 mm
02:34 2.7 °C 3.0 °C 1005.0 hPa West 7.2 km/h 9.3 km/h 98 % 1.3 mm
02:39 2.7 °C 3.0 °C 1005.0 hPa West 9.7 km/h 11.9 km/h 98 % 1.5 mm
02:44 2.7 °C 3.0 °C 1005.0 hPa WSW 12.2 km/h 12.2 km/h 98 % 1.5 mm
02:54 2.7 °C 3.0 °C 1005.0 hPa WSW 8.7 km/h 13.7 km/h 98 % 1.8 mm
02:59 2.7 °C 3.0 °C 1005.0 hPa WSW 7.6 km/h 12.2 km/h 98 % 1.8 mm
03:09 2.7 °C 3.0 °C 1005.0 hPa SW 7.6 km/h 10.1 km/h 98 % 1.8 mm
03:14 2.7 °C 3.0 °C 1005.0 hPa WSW 8.7 km/h 10.1 km/h 98 % 1.5 mm
03:19 2.7 °C 3.0 °C 1005.0 hPa WSW 9.3 km/h 10.1 km/h 98 % 1.3 mm
03:24 2.7 °C 3.0 °C 1005.0 hPa SW 9.7 km/h 10.1 km/h 98 % 1.3 mm
03:29 2.7 °C 3.0 °C 1003.9 hPa SW 6.1 km/h 9.7 km/h 98 % 1.0 mm
03:34 2.7 °C 3.0 °C 1003.9 hPa Calm   9.7 km/h 98 % 1.0 mm
03:39 2.8 °C 3.0 °C 1003.9 hPa Calm   9.0 km/h 98 % 0.5 mm
03:49 2.8 °C 3.0 °C 1005.0 hPa Calm   6.1 km/h 98 % 0.8 mm
03:54 2.8 °C 3.0 °C 1005.0 hPa WSW 8.7 km/h 9.7 km/h 98 % 1.5 mm
03:59 2.8 °C 3.0 °C 1005.0 hPa WSW 4.7 km/h 9.7 km/h 98 % 1.8 mm
04:04 2.9 °C 3.0 °C 1005.0 hPa SW 8.7 km/h 10.5 km/h 98 % 2.3 mm
04:09 3.0 °C 3.0 °C 1005.0 hPa WSW 11.6 km/h 24.8 km/h 98 % 1.8 mm
04:16 3.1 °C 3.0 °C 1003.9 hPa WSW 11.9 km/h 24.8 km/h 98 % 2.3 mm
04:21 3.1 °C 3.0 °C 1003.9 hPa WSW 9.7 km/h 19.5 km/h 98 % 2.3 mm
04:24 3.1 °C 3.0 °C 1003.9 hPa WSW 9.0 km/h 14.0 km/h 98 % 2.3 mm
04:25 3.1 °C 3.0 °C 1003.9 hPa WSW 6.9 km/h 14.0 km/h 98 % 2.3 mm
04:26 3.1 °C 3.0 °C 1002.9 hPa WSW 9.0 km/h 14.0 km/h 98 % 2.3 mm
04:27 3.1 °C 3.0 °C 1002.9 hPa WSW 7.6 km/h 14.0 km/h 98 % 2.3 mm
04:32 3.0 °C 3.0 °C 1002.9 hPa Calm   9.7 km/h 98 % 2.3 mm
04:35 3.0 °C 3.0 °C 1002.9 hPa Calm   9.0 km/h 98 % 2.3 mm
04:40 3.0 °C 3.0 °C 1002.9 hPa WSW 4.0 km/h 4.7 km/h 98 % 1.8 mm
04:45 3.0 °C 3.0 °C 1002.9 hPa WSW 8.7 km/h 9.0 km/h 98 % 1.5 mm
04:50 2.9 °C 3.0 °C 1002.9 hPa WSW 8.7 km/h 9.3 km/h 98 % 1.3 mm
05:00 3.0 °C 3.0 °C 1002.9 hPa West 8.7 km/h 10.5 km/h 98 % 0.5 mm
05:05 3.1 °C 3.0 °C 1002.9 hPa WSW 10.5 km/h 13.0 km/h 98 % 0.3 mm
05:10 3.3 °C 3.0 °C 1002.9 hPa West 9.7 km/h 13.7 km/h 98 % 0.3 mm
05:20 3.6 °C 4.0 °C 1002.9 hPa West 5.8 km/h 20.1 km/h 98 % 0.3 mm
05:25 3.6 °C 4.0 °C 1002.9 hPa WSW 13.7 km/h 18.0 km/h 98 % 0.3 mm
05:30 3.6 °C 4.0 °C 1002.9 hPa WSW 7.9 km/h 13.7 km/h 98 % 0.3 mm
05:35 3.6 °C 4.0 °C 1002.9 hPa WSW 7.9 km/h 13.7 km/h 98 % 0.3 mm
05:40 3.6 °C 4.0 °C 1002.9 hPa West 9.3 km/h 12.2 km/h 98 % 0.5 mm
05:50 3.6 °C 4.0 °C 1002.9 hPa WSW 11.9 km/h 18.0 km/h 98 % 0.5 mm
06:00 3.6 °C 4.0 °C 1002.9 hPa West 15.8 km/h 17.2 km/h 98 % 0.5 mm
06:10 3.6 °C 4.0 °C 1002.9 hPa West 10.5 km/h 23.8 km/h 98 % 0.3 mm
06:15 3.6 °C 4.0 °C 1002.9 hPa WSW 9.0 km/h 16.9 km/h 98 % 0.3 mm
06:20 3.6 °C 4.0 °C 1002.9 hPa West 9.7 km/h 15.8 km/h 98 % 0.3 mm
06:26 3.5 °C 4.0 °C 1002.9 hPa West 13.7 km/h 14.0 km/h 98 % 0.3 mm
06:31 3.6 °C 4.0 °C 1002.9 hPa WSW 13.7 km/h 16.6 km/h 98 % 0.3 mm
06:36 3.7 °C 4.0 °C 1002.9 hPa WNW 14.0 km/h 21.2 km/h 98 % 0.3 mm
06:42 3.8 °C 4.0 °C 1002.9 hPa West 21.6 km/h 21.6 km/h 98 % 0.3 mm
06:52 3.8 °C 4.0 °C 1002.9 hPa WSW 12.2 km/h 23.3 km/h 98 % 0.5 mm
06:57 3.8 °C 4.0 °C 1002.9 hPa West 14.0 km/h 21.2 km/h 98 % 0.5 mm
07:07 3.9 °C 4.0 °C 1002.9 hPa West 4.7 km/h 14.3 km/h 98 % 1.0 mm
07:12 3.9 °C 4.0 °C 1002.9 hPa West 1.8 km/h 11.9 km/h 98 % 1.0 mm
07:22 3.9 °C 4.0 °C 1002.9 hPa West 9.3 km/h 15.4 km/h 98 % 2.3 mm
07:32 4.0 °C 4.0 °C 1002.9 hPa West 10.5 km/h 12.6 km/h 98 % 2.3 mm
07:37 4.0 °C 4.0 °C 1002.9 hPa West 11.6 km/h 12.2 km/h 98 % 2.3 mm
07:42 4.0 °C 4.0 °C 1001.9 hPa West 11.6 km/h 12.2 km/h 98 % 1.8 mm
07:47 4.1 °C 4.0 °C 1001.9 hPa West 12.2 km/h 16.6 km/h 98 % 1.5 mm
07:52 4.1 °C 4.0 °C 1001.9 hPa West 19.8 km/h 19.8 km/h 98 % 1.5 mm
07:57 4.2 °C 4.0 °C 1002.9 hPa West 11.9 km/h 19.8 km/h 98 % 1.8 mm
08:03 4.2 °C 4.0 °C 1002.9 hPa West 9.0 km/h 20.6 km/h 98 % 1.5 mm
08:08 4.2 °C 4.0 °C 1002.9 hPa West 5.5 km/h 20.6 km/h 98 % 1.5 mm
08:13 4.3 °C 4.0 °C 1002.9 hPa WSW 7.9 km/h 13.7 km/h 98 % 1.3 mm
08:23 4.1 °C 4.0 °C 1002.9 hPa WNW 7.9 km/h 13.7 km/h 98 % 0.3 mm
08:33 4.2 °C 4.0 °C 1002.9 hPa West 11.9 km/h 17.2 km/h 98 % 0.3 mm
08:38 4.2 °C 4.0 °C 1002.9 hPa West 4.7 km/h 13.7 km/h 98 % 0.3 mm
08:43 4.2 °C 4.0 °C 1003.9 hPa West 3.5 km/h 15.1 km/h 98 % 0.3 mm
08:50 4.3 °C 4.0 °C 1003.9 hPa Calm   15.1 km/h 98 % 0.3 mm
08:55 4.3 °C 4.0 °C 1003.9 hPa North 6.9 km/h 10.5 km/h 98 % 0.0 mm
09:05 4.1 °C 4.0 °C 1003.9 hPa NE 5.0 km/h 13.0 km/h 98 % 0.8 mm
09:10 4.0 °C 4.0 °C 1003.9 hPa North 1.4 km/h 13.0 km/h 98 % 1.0 mm
09:15 4.0 °C 4.0 °C 1003.9 hPa Calm   9.3 km/h 98 % 1.0 mm
09:20 3.9 °C 4.0 °C 1003.9 hPa Calm   3.5 km/h 98 % 1.0 mm
09:25 3.8 °C 4.0 °C 1005.0 hPa NNE 4.7 km/h 12.6 km/h 98 % 1.0 mm
09:30 3.7 °C 4.0 °C 1005.0 hPa ENE 7.6 km/h 12.6 km/h 98 % 1.0 mm
09:36 3.6 °C 4.0 °C 1005.0 hPa Calm   12.2 km/h 98 % 1.0 mm
09:46 3.5 °C 4.0 °C 1005.0 hPa Calm   9.0 km/h 98 % 1.3 mm
09:51 3.4 °C 3.0 °C 1005.0 hPa Calm   9.0 km/h 98 % 1.3 mm
10:01 3.3 °C 3.0 °C 1005.0 hPa NNE 9.0 km/h 9.3 km/h 98 % 1.5 mm
10:06 3.2 °C 3.0 °C 1005.0 hPa NNE 5.0 km/h 12.2 km/h 98 % 1.3 mm
10:11 3.1 °C 3.0 °C 1005.0 hPa ENE 5.5 km/h 12.2 km/h 98 % 1.8 mm
10:16 3.1 °C 3.0 °C 1005.0 hPa Calm   6.9 km/h 98 % 2.3 mm
10:21 3.1 °C 3.0 °C 1005.0 hPa Calm   6.1 km/h 98 % 2.5 mm
10:26 3.1 °C 3.0 °C 1005.0 hPa Calm   1.4 km/h 98 % 2.5 mm
10:31 3.2 °C 3.0 °C 1005.0 hPa Calm     98 % 2.5 mm
10:36 3.2 °C 3.0 °C 1005.0 hPa Calm     98 % 2.5 mm
10:46 3.4 °C 3.0 °C 1005.0 hPa Calm     98 % 2.5 mm
10:56 3.7 °C 4.0 °C 1003.9 hPa Calm     98 % 2.5 mm
11:01 3.8 °C 4.0 °C 1003.9 hPa Calm   4.7 km/h 98 % 2.3 mm
11:11 4.0 °C 4.0 °C 1005.0 hPa Calm     98 % 0.8 mm
11:16 4.2 °C 4.0 °C 1005.0 hPa WSW 2.6 km/h 2.6 km/h 98 % 0.5 mm
11:21 4.3 °C 4.0 °C 1005.0 hPa Calm   2.6 km/h 98 % 0.3 mm
11:26 4.4 °C 4.0 °C 1003.9 hPa Calm   5.8 km/h 98 % 0.3 mm
11:31 4.3 °C 4.0 °C 1003.9 hPa Calm   5.8 km/h 98 % 0.3 mm
11:36 4.3 °C 4.0 °C 1003.9 hPa South 1.8 km/h 4.3 km/h 98 % 0.3 mm
11:41 4.3 °C 4.0 °C 1005.0 hPa Calm   3.2 km/h 98 % 0.0 mm
11:46 4.3 °C 4.0 °C 1005.0 hPa Calm   3.2 km/h 98 % 0.0 mm
11:51 4.3 °C 4.0 °C 1005.0 hPa Calm   3.2 km/h 98 % 0.0 mm
11:56 4.3 °C 4.0 °C 1003.9 hPa Calm   3.2 km/h 98 % 0.0 mm
12:01 4.6 °C 5.0 °C 1003.9 hPa Calm     98 % 0.0 mm
12:06 4.7 °C 5.0 °C 1003.9 hPa Calm     98 % 0.0 mm
12:16 5.3 °C 6.0 °C 1005.0 hPa Calm     98 % 0.0 mm
12:21 5.7 °C 6.0 °C 1005.0 hPa Calm     98 % 0.0 mm
12:26 5.9 °C 6.0 °C 1005.0 hPa Calm     98 % 0.0 mm
12:31 6.1 °C 6.0 °C 1005.0 hPa Calm     98 % 0.0 mm
12:36 6.0 °C 6.0 °C 1005.0 hPa NNW 5.0 km/h 8.7 km/h 98 % 0.0 mm
12:41 5.7 °C 6.0 °C 1005.0 hPa WNW 4.7 km/h 12.6 km/h 98 % 0.3 mm
12:46 5.6 °C 6.0 °C 1005.0 hPa Calm   12.6 km/h 98 % 0.5 mm
13:02 6.0 °C 6.0 °C 1005.0 hPa West 9.0 km/h 10.1 km/h 98 % 0.5 mm
13:12 6.7 °C 7.0 °C 1005.0 hPa West 1.4 km/h 13.7 km/h 98 % 0.5 mm
13:17 7.0 °C 7.0 °C 1005.0 hPa WNW 7.6 km/h 14.0 km/h 98 % 0.5 mm
13:22 7.0 °C 7.0 °C 1005.0 hPa NW 11.9 km/h 14.0 km/h 98 % 0.5 mm
13:32 7.4 °C 7.0 °C 1005.0 hPa North 11.9 km/h 15.8 km/h 98 % 0.5 mm
13:37 7.4 °C 7.0 °C 1005.0 hPa WNW 10.5 km/h 16.3 km/h 98 % 0.5 mm
13:42 7.6 °C 8.0 °C 1005.0 hPa North 11.1 km/h 19.1 km/h 98 % 0.3 mm
13:52 7.5 °C 7.0 °C 1005.0 hPa WNW 12.2 km/h 12.6 km/h 96 % 0.0 mm
13:57 7.4 °C 7.0 °C 1005.0 hPa WNW 4.7 km/h 14.0 km/h 96 % 0.0 mm
14:02 7.2 °C 6.0 °C 1005.0 hPa North 2.1 km/h 23.8 km/h 93 % 0.0 mm
14:07 7.3 °C 6.0 °C 1005.0 hPa West 9.0 km/h 23.8 km/h 93 % 0.0 mm
14:22 6.7 °C 6.0 °C 1005.0 hPa West 10.5 km/h 21.2 km/h 93 % 0.0 mm
14:28 6.7 °C 6.0 °C 1005.0 hPa WNW 9.0 km/h 21.2 km/h 94 % 0.0 mm
14:33 6.7 °C 6.0 °C 1005.0 hPa WNW 9.3 km/h 13.7 km/h 94 % 0.0 mm
14:38 6.4 °C 6.0 °C 1005.0 hPa NNW 7.9 km/h 15.1 km/h 93 % 0.0 mm
14:43 6.3 °C 6.0 °C 1006.0 hPa WNW 6.1 km/h 15.1 km/h 93 % 0.0 mm
14:53 6.0 °C 5.0 °C 1006.0 hPa West 4.7 km/h 15.4 km/h 93 % 0.0 mm
14:58 6.1 °C 5.0 °C 1005.0 hPa WNW 7.6 km/h 12.6 km/h 94 % 0.0 mm
15:13 6.1 °C 5.0 °C 1005.0 hPa West 7.6 km/h 15.4 km/h 94 % 0.0 mm
15:18 5.8 °C 5.0 °C 1005.0 hPa NNW 5.8 km/h 13.7 km/h 94 % 0.0 mm
15:38 5.1 °C 5.0 °C 1003.9 hPa SW 6.4 km/h 12.2 km/h 95 % 0.3 mm
15:44 5.0 °C 5.0 °C 1005.0 hPa WSW 5.5 km/h 12.2 km/h 95 % 0.3 mm
15:49 5.0 °C 5.0 °C 1005.0 hPa SW 10.1 km/h 12.2 km/h 96 % 0.3 mm
15:54 4.9 °C 5.0 °C 1005.0 hPa WNW 7.2 km/h 10.5 km/h 96 % 0.3 mm
15:59 4.8 °C 4.0 °C 1005.0 hPa WSW 5.0 km/h 9.3 km/h 97 % 0.3 mm
16:04 4.7 °C 4.0 °C 1005.0 hPa WNW 4.0 km/h 9.0 km/h 97 % 0.3 mm
16:09 4.7 °C 4.0 °C 1005.0 hPa West 4.7 km/h 9.7 km/h 97 % 0.3 mm
16:14 4.6 °C 4.0 °C 1005.0 hPa WNW 6.1 km/h 9.7 km/h 97 % 0.3 mm
16:24 4.6 °C 5.0 °C 1005.0 hPa West 4.3 km/h 9.3 km/h 98 % 0.3 mm
16:39 4.4 °C 4.0 °C 1003.9 hPa Calm   10.1 km/h 98 % 0.0 mm
16:44 4.3 °C 4.0 °C 1003.9 hPa West 5.0 km/h 8.7 km/h 98 % 0.0 mm
16:49 4.2 °C 4.0 °C 1003.9 hPa Calm   9.0 km/h 98 % 0.0 mm
17:04 4.0 °C 4.0 °C 1005.0 hPa Calm   10.1 km/h 98 % 0.0 mm
17:09 3.8 °C 4.0 °C 1005.0 hPa West 6.1 km/h 6.9 km/h 98 % 0.0 mm
17:14 3.7 °C 4.0 °C 1005.0 hPa Calm   6.9 km/h 98 % 0.0 mm
17:24 3.5 °C 4.0 °C 1005.0 hPa Calm   6.4 km/h 98 % 0.0 mm
17:29 3.4 °C 3.0 °C 1005.0 hPa Calm   6.9 km/h 98 % 0.0 mm
17:39 3.4 °C 3.0 °C 1005.0 hPa Calm   6.1 km/h 98 % 0.0 mm
17:49 3.4 °C 3.0 °C 1006.0 hPa West 4.3 km/h 5.8 km/h 98 % 0.0 mm
17:54 3.4 °C 3.0 °C 1006.0 hPa Calm   7.9 km/h 98 % 0.0 mm
17:59 3.3 °C 3.0 °C 1006.0 hPa Calm   7.9 km/h 98 % 0.0 mm
18:04 3.3 °C 3.0 °C 1006.0 hPa WNW 3.2 km/h 6.1 km/h 98 % 0.0 mm
18:09 3.3 °C 3.0 °C 1006.0 hPa WNW 3.2 km/h 9.3 km/h 98 % 0.0 mm
18:14 3.4 °C 3.0 °C 1006.0 hPa Calm   9.3 km/h 98 % 0.0 mm
18:19 3.5 °C 4.0 °C 1006.0 hPa Calm   6.9 km/h 98 % 0.0 mm
18:29 3.6 °C 4.0 °C 1006.0 hPa Calm   5.8 km/h 98 % 0.0 mm
18:34 3.6 °C 4.0 °C 1006.0 hPa Calm   6.4 km/h 98 % 0.0 mm
18:39 3.6 °C 4.0 °C 1006.0 hPa Calm   6.4 km/h 98 % 0.0 mm
18:44 3.6 °C 4.0 °C 1006.0 hPa North 7.9 km/h 8.7 km/h 98 % 0.0 mm
18:49 3.7 °C 4.0 °C 1006.0 hPa Calm   11.9 km/h 98 % 0.0 mm
18:54 3.8 °C 4.0 °C 1006.0 hPa WNW 4.7 km/h 11.9 km/h 98 % 0.0 mm
19:04 3.7 °C 4.0 °C 1006.0 hPa Calm   9.7 km/h 98 % 0.0 mm
19:14 3.6 °C 4.0 °C 1007.0 hPa NW 7.9 km/h 7.9 km/h 98 % 0.0 mm
19:20 3.6 °C 4.0 °C 1007.0 hPa Calm   7.9 km/h 98 % 0.0 mm
19:30 3.8 °C 4.0 °C 1007.0 hPa Calm   7.9 km/h 98 % 0.3 mm
19:35 4.0 °C 4.0 °C 1007.0 hPa Calm   7.6 km/h 98 % 0.3 mm
19:40 4.0 °C 4.0 °C 1007.0 hPa WNW 6.1 km/h 6.1 km/h 98 % 0.3 mm
19:45 4.1 °C 4.0 °C 1007.0 hPa West 2.6 km/h 6.1 km/h 98 % 0.3 mm
19:50 4.1 °C 4.0 °C 1007.0 hPa Calm   5.8 km/h 98 % 0.3 mm
19:55 4.1 °C 4.0 °C 1007.0 hPa Calm   6.4 km/h 98 % 0.3 mm
20:00 4.1 °C 4.0 °C 1007.0 hPa Calm   6.4 km/h 98 % 0.3 mm
20:05 4.1 °C 4.0 °C 1007.0 hPa Calm   5.8 km/h 98 % 0.3 mm
20:10 4.0 °C 4.0 °C 1007.0 hPa Calm   2.6 km/h 98 % 0.3 mm
20:20 3.8 °C 4.0 °C 1007.0 hPa Calm   4.7 km/h 98 % 0.3 mm
20:25 3.7 °C 4.0 °C 1007.0 hPa Calm   4.7 km/h 98 % 0.3 mm
20:30 3.6 °C 4.0 °C 1008.0 hPa Calm   3.2 km/h 98 % 0.0 mm
20:35 3.6 °C 4.0 °C 1008.0 hPa Calm   4.7 km/h 98 % 0.0 mm
20:40 3.6 °C 4.0 °C 1008.0 hPa Calm   4.7 km/h 98 % 0.0 mm
20:45 3.7 °C 4.0 °C 1007.0 hPa Calm   6.1 km/h 98 % 0.0 mm
20:55 3.8 °C 4.0 °C 1007.0 hPa WNW 4.3 km/h 8.7 km/h 98 % 0.3 mm
21:00 4.0 °C 4.0 °C 1007.0 hPa North 4.0 km/h 10.5 km/h 98 % 0.3 mm
21:05 4.0 °C 4.0 °C 1007.0 hPa North 4.3 km/h 10.5 km/h 98 % 0.3 mm
21:10 4.0 °C 4.0 °C 1007.0 hPa NNW 5.0 km/h 9.0 km/h 98 % 0.3 mm
21:15 3.9 °C 4.0 °C 1007.0 hPa North 5.5 km/h 7.9 km/h 98 % 0.3 mm
21:20 3.8 °C 4.0 °C 1007.0 hPa NNW 3.5 km/h 6.4 km/h 98 % 0.3 mm
21:25 3.7 °C 4.0 °C 1007.0 hPa Calm   6.4 km/h 98 % 0.3 mm
21:30 3.6 °C 4.0 °C 1007.0 hPa Calm   4.7 km/h 98 % 0.3 mm
21:35 3.5 °C 4.0 °C 1007.0 hPa Calm   4.7 km/h 98 % 0.3 mm
21:40 3.4 °C 3.0 °C 1007.0 hPa Calm     98 % 0.3 mm
21:45 3.4 °C 3.0 °C 1006.0 hPa Calm   4.3 km/h 98 % 0.3 mm
22:00 3.2 °C 3.0 °C 1007.0 hPa Calm   4.7 km/h 98 % 0.0 mm
22:05 3.0 °C 3.0 °C 1007.0 hPa Calm     98 % 0.0 mm
22:10 2.7 °C 3.0 °C 1007.0 hPa Calm     98 % 0.0 mm
22:15 2.4 °C 3.0 °C 1007.0 hPa Calm     98 % 0.0 mm
22:35 1.8 °C 2.0 °C 1007.0 hPa Calm   4.7 km/h 98 % 0.0 mm
22:40 1.9 °C 2.0 °C 1007.0 hPa West 7.2 km/h 7.2 km/h 98 % 0.0 mm
22:50 2.1 °C 2.0 °C 1008.0 hPa Calm   9.0 km/h 98 % 0.0 mm
22:55 2.2 °C 2.0 °C 1008.0 hPa Calm   6.9 km/h 98 % 0.0 mm
23:00 2.2 °C 2.0 °C 1008.0 hPa Calm     98 % 0.0 mm
23:05 2.2 °C 2.0 °C 1008.0 hPa Calm     98 % 0.0 mm
23:10 2.2 °C 2.0 °C 1008.0 hPa Calm     98 % 0.3 mm
23:15 2.1 °C 2.0 °C 1007.0 hPa Calm     98 % 0.3 mm
23:25 1.9 °C 2.0 °C 1007.0 hPa Calm     98 % 0.3 mm
23:31 1.9 °C 2.0 °C 1007.0 hPa Calm     98 % 0.3 mm
23:41 2.2 °C 2.0 °C 1008.0 hPa NW 6.1 km/h 8.7 km/h 98 % 0.3 mm
23:46 2.7 °C 3.0 °C 1008.0 hPa WNW 7.6 km/h 9.0 km/h 98 % 0.3 mm
23:51 2.9 °C 3.0 °C 1008.0 hPa West 9.3 km/h 11.6 km/h 98 % 0.3 mm
Le Gheer Warneton
Courtoisie de Weather Underground - 2 mb

Mise a jour : 17-12-17 08:50:15
Généré par Cumulus 1.9.4 (1099)